Regional Weather Roundup
Issued by NWS

Home | Current Version | Previous Version | Graphics & Text | Print | Product List | Glossary On
Versions: 1 2 3 4 5 6 7 8 9 10 11 12 13 14 15 16 17 18 19 20 21 22 23 24 25 26 27 28 29 30 31 32 33 34 35 36 37 38 39 40 41 42 43 44 45 46 47 48 49 50
000
ASUS45 KABQ 250301
RWRNM
NEW MEXICO REGIONAL WEATHER ROUNDUP
NATIONAL WEATHER SERVICE ALBUQUERQUE NM
800 PM MST SAT FEB 24 2018

NOTE: "FAIR" MEANS FEW OR NO CLOUDS BELOW 12,000 FEET AGL WITH NO
       SIGNIFICANT WEATHER OR OBSTRUCTIONS TO VISION.

      THIS PRODUCT IS RELEASED AS TWO VERSIONS.  ONE VERSION NEAR
      THE TOP OF THE HOUR CONTAINING PRELIMINARY DATA FROM ALBUQUERQUE
      AND OTHER STATIONS.  A FINAL VERSION WITH ADDITIONAL DATA IS
      ISSUED ABOUT 10 MINUTES AFTER THE HOUR.

NMZ501-503-504-510>518-250400-
NORTHWEST PLATEAU/NORTHCENTRAL MOUNTAINS

CITY           SKY/WX    TMP DP  RH WIND       PRES   REMARKS
FARMINGTON     FAIR      27   6  41 NE5       29.96R WCI  22
LOS ALAMOS     FAIR      28   8  41 SW7       29.97R WCI  21
SANTA FE       FAIR      27   7  42 CALM      29.98R
TAOS           FAIR      26   6  42 SW8       29.99R WCI  18
ANGEL FIRE     FAIR      19   2  48 W20G26    29.91S WCI   3

$$
NMZ402-403-502-505>509-250400-
WESTCENTRAL MOUNTAINS/SOUTHWEST MOUNTAINS

CITY           SKY/WX    TMP DP  RH WIND       PRES   REMARKS
GALLUP         FAIR      26  10  50 CALM      29.99F
GRANTS         FAIR      27   9  46 SW5       30.02F WCI  22
SILVER CITY    FAIR      34  10  37 NW3       30.08R

$$
NMZ407-409-411-412-250400-
SOUTHERN DESERTS

CITY           SKY/WX    TMP DP  RH WIND       PRES   REMARKS
DEMING         FAIR      43   7  22 W12       30.08R
LAS CRUCES     FAIR      44   8  23 SW9       30.08R
HOLLOMAN AFB   FAIR      40  10  28 SE8       30.07R
ALAMOGORDO     FAIR      36  10  35 SE10      30.06R WCI  28
T OR C         FAIR      43   7  22 E5        30.00S

$$
NMZ519>523-250400-
CENTRAL VALLEYS/CENTRAL HIGHLANDS

CITY           SKY/WX    TMP DP  RH WIND       PRES   REMARKS
ALBUQUERQUE    FAIR      37   8  30 SW8       30.03R WCI  31
DOUBLE EAGLE   CLEAR     30   7  37 SW12      30.02R WCI  21
MORIARTY ARPT  FAIR      32   7  34 CALM      30.01S
CLINES CORNERS FAIR      24   4  42 W16       29.98R WCI  11
BELEN          FAIR      33   5  31 W6        30.04R WCI  27
SOCORRO        FAIR      35   4  26 CALM      30.04R

$$
NMZ524>526-539-540-250400-
SOUTHCENTRAL MOUNTAINS

CITY           SKY/WX    TMP DP  RH WIND       PRES   REMARKS
RUIDOSO        FAIR      30  -2  24 CALM      30.02S

$$
NMZ527>531-250400-
NORTHEAST HIGHLANDS/NORTHEAST PLAINS

CITY           SKY/WX    TMP DP  RH WIND       PRES   REMARKS
LAS VEGAS      FAIR      27  -1  30 SW8       29.92R WCI  19
RATON          FAIR      27  -2  28 SW8       29.84R WCI  19
CLAYTON        FAIR      33  -5  19 W13       29.85S WCI  24

$$
NMZ532>537-250400-
EASTCENTRAL PLAINS

CITY           SKY/WX    TMP DP  RH WIND       PRES   REMARKS
SANTA ROSA     FAIR      36   3  24 W9        29.96R WCI  29
TUCUMCARI      FAIR      43   2  18 W15G24    29.90R
CANNON AFB     FAIR      38   1  20 W13       29.98R WCI  30
CLOVIS AIRPORT FAIR      29   4  34 SW9       29.98R WCI  20

$$
NMZ028-029-538-250400-
SOUTHEAST PLAINS

CITY           SKY/WX    TMP DP  RH WIND       PRES   REMARKS
ROSWELL        FAIR      41   7  24 E3        29.99R
ARTESIA        FAIR      43   5  21 S10       30.02R
CARLSBAD       FAIR      44   3  18 W9        30.01R
HOBBS          FAIR      39   1  20 N7        30.02S WCI  34


$$




USA.gov is the U.S. government's official web portal to all federal, state and local government web resources and services.